period_start,C,m1,H,J0,J1,J2,J3,J4,J5,JA,JB,JC,JD,JJ,JK,JN,#
2014-04-04 00:00:47,0.14,5.28,0.00,16.89,22.64,25.51,6.26,31.92,1021.00,2057.10,1889.08,2175.03,2339.97,350.56,332.75,34.62,0000 0000 0000 0000 000000
2014-04-04 00:01:47,0.06,5.28,0.00,16.89,22.64,25.51,6.18,32.13,1021.01,2057.08,1889.02,2175.01,2339.82,349.85,332.61,34.62,0000 0000 0000 0000 000000
2014-04-04 00:02:48,0.05,5.28,0.00,16.89,22.65,25.52,6.24,31.79,1021.01,2057.06,1889.01,2175.00,2339.43,351.26,333.41,34.63,0000 0000 0000 0000 000000
2014-04-04 00:03:48,0.07,5.29,0.00,16.89,22.65,25.51,6.27,32.00,1021.01,2057.09,1889.00,2175.00,2339.20,350.48,332.53,34.64,0000 0000 0000 0000 000000
2014-04-04 00:04:48,0.06,5.29,0.00,16.89,22.67,25.52,6.15,31.92,1021.00,2057.06,1888.93,2174.99,2339.10,349.80,331.76,34.64,0000 0000 0000 0000 000000
2014-04-04 00:05:48,0.05,5.29,0.00,16.90,22.67,25.52,6.13,32.04,1020.99,2057.05,1888.70,2174.97,2339.03,348.72,330.98,34.65,0000 0000 0000 0000 000000
2014-04-04 00:06:49,0.12,5.29,0.00,16.92,22.67,25.51,6.28,32.13,1020.99,2057.06,1888.32,2174.88,2339.01,350.64,332.79,34.65,0000 0000 0000 0000 000000
2014-04-04 00:07:49,0.15,5.29,0.00,16.94,22.67,25.54,6.17,32.04,1020.97,2057.05,1888.16,2174.62,2338.99,349.88,332.35,34.66,0000 0000 0000 0000 000000
2014-04-04 00:08:49,0.19,5.29,0.00,16.94,22.67,25.56,6.23,32.13,1020.96,2057.04,1888.06,2174.29,2338.97,350.05,332.17,34.67,0000 0000 0000 0000 000000
2014-04-04 00:09:49,0.15,5.29,0.00,16.94,22.68,25.58,6.14,32.25,1020.95,2057.03,1888.02,2174.11,2338.70,349.79,331.94,34.67,0000 0000 0000 0000 000000
2014-04-04 00:10:50,0.14,5.29,0.00,16.94,22.69,25.58,6.06,32.00,1020.96,2057.01,1887.99,2174.04,2338.30,349.46,331.42,34.68,0000 0000 0000 0000 000000
2014-04-04 00:11:50,0.09,5.29,0.00,16.94,22.69,25.61,6.27,32.21,1020.98,2057.02,1887.98,2174.01,2338.12,350.16,332.24,34.68,0000 0000 0000 0000 000000
2014-04-04 00:12:50,0.05,5.29,0.00,16.94,22.69,25.63,6.29,32.00,1020.97,2057.01,1887.78,2173.99,2338.04,350.51,332.93,34.69,0000 0000 0000 0000 000000
2014-04-04 00:13:50,0.09,5.29,0.00,16.94,22.69,25.64,6.27,32.00,1020.94,2057.00,1887.49,2173.96,2338.01,350.39,332.37,34.69,0000 0000 0000 0000 000000
2014-04-04 00:14:51,0.13,5.29,0.00,16.93,22.70,25.61,6.23,31.92,1020.94,2057.00,1887.21,2173.93,2337.99,350.23,332.76,34.70,0000 0000 0000 0000 000000
2014-04-04 00:15:51,0.12,5.29,0.00,16.93,22.71,25.61,6.20,32.00,1020.96,2057.01,1887.08,2173.67,2337.97,349.43,331.61,34.71,0000 0000 0000 0000 000000
2014-04-04 00:16:51,0.17,5.29,0.00,16.94,22.72,25.63,6.21,32.17,1020.96,2057.00,1887.02,2173.30,2337.61,350.07,332.31,34.71,0000 0000 0000 0000 000000
2014-04-04 00:17:51,0.23,5.30,0.00,16.94,22.72,25.64,6.17,32.29,1020.91,2057.00,1886.88,2173.11,2337.26,348.99,331.17,34.72,0000 0000 0000 0000 000000
2014-04-04 00:18:51,0.18,5.30,0.00,16.94,22.72,25.65,6.21,32.08,1020.95,2057.00,1886.89,2173.04,2337.12,349.88,332.03,34.72,0000 0000 0000 0000 000000
2014-04-04 00:19:52,0.07,5.30,0.00,16.95,22.72,25.62,6.26,31.92,1020.95,2057.00,1886.65,2173.01,2337.04,350.07,332.20,34.73,0000 0000 0000 0000 000000
2014-04-04 00:20:52,0.13,5.30,0.00,16.96,22.73,25.67,6.30,32.25,1020.85,2057.00,1886.31,2173.00,2337.01,349.96,332.05,34.74,0000 0000 0000 0000 000000
2014-04-04 00:21:52,0.11,5.30,0.00,16.97,22.74,25.67,6.14,32.04,1020.88,2057.00,1886.13,2172.98,2337.00,349.72,331.82,34.74,0000 0000 0000 0000 000000
2014-04-04 00:22:52,0.06,5.30,0.00,16.97,22.74,25.69,6.26,32.00,1020.90,2057.00,1886.05,2172.94,2337.00,350.60,332.47,34.75,0000 0000 0000 0000 000000
2014-04-04 00:23:53,0.05,5.30,0.00,16.97,22.74,25.73,6.16,32.13,1020.80,2057.00,1886.01,2172.81,2336.89,350.14,332.65,34.75,0000 0000 0000 0000 000000
2014-04-04 00:24:53,0.08,5.30,0.00,16.97,22.75,25.72,6.19,32.17,1020.80,2057.00,1885.98,2172.55,2336.72,350.25,332.06,34.76,0000 0000 0000 0000 000000
2014-04-04 00:25:53,0.19,5.30,0.00,16.98,22.75,25.70,6.23,32.21,1020.82,2057.00,1885.95,2172.25,2336.33,349.80,332.00,34.76,0000 0000 0000 0000 000000
2014-04-04 00:26:54,0.18,5.30,0.00,16.97,22.75,25.72,6.18,32.13,1020.83,2057.00,1885.76,2172.12,2336.16,349.65,331.94,34.77,0000 0000 0000 0000 000000
2014-04-04 00:27:54,0.19,5.30,0.00,16.97,22.77,25.70,6.20,32.13,1020.80,2057.00,1885.37,2172.05,2336.08,350.25,332.13,34.78,0000 0000 0000 0000 000000
2014-04-04 00:28:54,0.16,5.30,0.00,16.99,22.77,25.72,6.23,32.00,1020.77,2057.00,1885.18,2172.02,2336.03,351.23,333.57,34.78,0000 0000 0000 0000 000000
2014-04-04 00:29:54,0.08,5.30,0.00,16.99,22.77,25.70,6.21,32.21,1020.71,2057.00,1885.08,2172.00,2336.01,349.07,331.13,34.79,0000 0000 0000 0000 000000
2014-04-04 00:30:55,0.04,5.30,0.00,17.01,22.77,25.69,6.23,32.21,1020.74,2057.00,1885.02,2172.00,2335.98,350.35,332.33,34.79,0000 0000 0000 0000 000000
2014-04-04 00:31:55,0.02,5.30,0.00,17.02,22.77,25.70,6.23,32.21,1020.86,2057.00,1885.01,2172.00,2335.91,350.10,332.11,34.80,0000 0000 0000 0000 000000
2014-04-04 00:32:55,0.04,5.31,0.00,17.02,22.77,25.71,6.29,32.29,1020.88,2057.00,1884.98,2171.92,2335.61,350.10,331.79,34.81,0000 0000 0000 0000 000000
2014-04-04 00:33:55,0.10,5.31,0.00,17.02,22.79,25.72,6.24,32.29,1020.82,2057.00,1884.93,2171.68,2335.28,350.81,332.57,34.81,0000 0000 0000 0000 000000
2014-04-04 00:34:56,0.17,5.31,0.00,17.02,22.79,25.76,6.25,32.08,1020.81,2057.00,1884.81,2171.42,2335.13,350.07,332.07,34.82,0000 0000 0000 0000 000000
2014-04-04 00:35:56,0.22,5.31,0.00,17.02,22.79,25.78,6.25,32.13,1020.78,2057.00,1884.44,2171.21,2335.05,349.45,331.49,34.82,0000 0000 0000 0000 000000
2014-04-04 00:36:56,0.22,5.31,0.00,17.02,22.79,25.75,6.22,31.96,1020.78,2057.00,1884.16,2171.08,2335.02,349.71,331.73,34.83,0000 0000 0000 0000 000000
2014-04-04 00:37:56,0.14,5.31,0.00,17.02,22.79,25.78,6.18,32.04,1020.70,2056.99,1884.06,2171.03,2335.00,350.32,332.15,34.84,0000 0000 0000 0000 000000
2014-04-04 00:38:57,0.04,5.31,0.00,17.00,22.80,25.75,6.22,31.96,1020.69,2056.96,1884.02,2171.01,2334.99,349.83,331.82,34.84,0000 0000 0000 0000 000000
2014-04-04 00:39:57,0.00,5.31,0.00,17.01,22.80,25.73,6.15,32.13,1020.70,2056.97,1884.00,2171.00,2334.94,348.96,331.01,34.85,0000 0000 0000 0000 000000
2014-04-04 00:40:57,0.03,5.31,0.00,17.01,22.81,25.72,6.12,32.17,1020.67,2056.98,1883.75,2170.93,2334.63,349.47,331.47,34.85,0000 0000 0000 0000 000000
2014-04-04 00:41:57,0.23,5.31,0.00,17.01,22.82,25.75,6.22,32.04,1020.61,2056.98,1883.35,2170.69,2334.24,349.79,331.76,34.86,0000 0000 0000 0000 000000
2014-04-04 00:42:58,0.26,5.31,0.00,17.02,22.82,25.75,6.21,32.29,1020.83,2056.92,1883.16,2170.33,2334.08,350.49,332.48,34.86,0000 0000 0000 0000 000000
2014-04-04 00:43:58,0.21,5.32,0.00,17.02,22.82,25.78,6.23,31.96,1020.93,2056.92,1883.06,2170.12,2334.03,350.27,332.06,34.87,0000 0000 0000 0000 000000
2014-04-04 00:44:58,0.13,5.32,0.00,17.02,22.82,25.80,6.21,32.25,1020.86,2056.89,1883.01,2170.04,2333.99,349.42,331.21,34.88,0000 0000 0000 0000 000000
2014-04-04 00:45:59,0.01,5.32,0.00,17.02,22.82,25.81,6.22,32.17,1020.92,2056.90,1882.98,2170.01,2333.97,350.03,331.75,34.88,0000 0000 0000 0000 000000
2014-04-04 00:46:59,0.02,5.32,0.00,17.03,22.83,25.77,6.21,32.00,1020.91,2056.92,1882.96,2170.00,2333.89,350.21,332.43,34.89,0000 0000 0000 0000 000000
2014-04-04 00:47:59,0.04,5.32,0.00,17.04,22.84,25.82,6.30,32.04,1020.93,2056.93,1882.87,2170.00,2333.77,350.16,331.99,34.89,0000 0000 0000 0000 000000
2014-04-04 00:48:59,0.11,5.32,0.00,17.04,22.84,25.80,6.17,32.13,1020.95,2056.94,1882.62,2170.00,2333.45,350.64,332.64,34.90,0000 0000 0000 0000 000000
2014-04-04 00:49:59,0.17,5.32,0.00,17.04,22.84,25.80,6.24,32.08,1020.96,2056.93,1882.35,2169.98,2333.19,349.93,332.22,34.91,0000 0000 0000 0000 000000
2014-04-04 00:51:00,0.13,5.32,0.00,17.06,22.84,25.81,6.24,32.04,1020.98,2056.90,1882.18,2169.90,2333.09,350.75,332.78,34.91,0000 0000 0000 0000 000000
2014-04-04 00:52:00,0.14,5.32,0.00,17.07,22.84,25.81,6.21,32.08,1020.99,2056.88,1882.07,2169.64,2333.03,350.33,332.11,34.92,0000 0000 0000 0000 000000
2014-04-04 00:53:00,0.07,5.32,0.00,17.06,22.85,25.84,6.23,32.04,1021.00,2056.74,1882.02,2169.32,2332.99,350.28,331.93,34.92,0000 0000 0000 0000 000000
2014-04-04 00:54:00,-0.01,5.32,0.00,17.07,22.85,25.83,6.28,32.21,1020.97,2056.64,1882.01,2169.15,2332.98,349.77,331.45,34.93,0000 0000 0000 0000 000000
2014-04-04 00:55:01,0.06,5.32,0.00,17.07,22.86,25.85,6.23,32.13,1020.95,2056.59,1881.97,2169.05,2332.96,350.57,332.39,34.93,0000 0000 0000 0000 000000
2014-04-04 00:56:01,-0.01,5.32,0.00,17.08,22.87,25.85,6.26,31.96,1020.96,2056.61,1881.91,2169.02,2332.84,350.50,332.67,34.94,0000 0000 0000 0000 000000
2014-04-04 00:57:01,0.09,5.32,0.00,17.09,22.87,25.84,6.24,31.79,1021.00,2056.60,1881.67,2169.00,2332.54,349.55,331.56,34.95,0000 0000 0000 0000 000000
2014-04-04 00:58:01,0.16,5.32,0.00,17.09,22.87,25.85,6.32,31.88,1020.98,2056.40,1881.27,2168.96,2332.20,350.51,332.46,34.95,0000 0000 0000 0000 000000
2014-04-04 00:59:01,0.01,5.32,0.00,17.10,22.87,25.86,6.13,32.00,1020.95,2056.30,1881.11,2168.97,2332.08,350.33,332.35,34.96,0000 0000 0000 0000 000000
2014-04-04 01:00:02,-0.01,5.32,0.00,17.10,22.87,25.86,6.24,32.04,1020.97,2056.22,1881.04,2168.79,2332.03,350.94,332.53,34.96,0000 0000 0000 0000 000000
2014-04-04 01:01:02,0.02,5.32,0.00,17.09,22.88,25.89,5.33,26.50,1020.96,2056.20,1880.98,2168.38,2331.99,296.53,280.22,34.97,0000 0000 0000 0000 000009
2014-04-04 01:02:02,0.02,1.77,0.00,17.09,22.89,25.86,3.79,20.21,1020.95,2058.73,2997.06,2969.74,3222.66,215.44,204.34,0.00,0000 0000 0000 0000 000002
2014-04-04 01:03:02,0.02,0.00,0.00,17.09,22.89,25.86,6.23,31.79,1020.97,2060.01,3553.18,3369.61,3667.99,349.27,331.51,0.00,0000 0000 0000 0000 000002
2014-04-04 01:04:03,0.02,0.00,0.00,17.10,22.89,25.86,6.31,31.75,1020.98,2060.00,3551.69,3369.06,3667.71,349.13,331.15,0.01,0000 0000 0000 0000 000002
2014-04-04 01:05:03,0.02,0.00,0.00,17.09,22.90,25.90,6.26,31.67,1021.01,2060.03,3550.69,3368.52,3667.29,349.86,332.25,0.00,0000 0000 0000 0000 000000
2014-04-04 01:06:03,0.02,0.00,0.00,17.10,22.90,25.86,6.17,31.83,1021.00,2060.03,3550.19,3368.18,3667.08,349.99,331.56,0.00,0000 0000 0000 0000 000000
2014-04-04 01:07:04,0.02,0.00,0.00,17.11,22.90,25.86,6.15,31.83,1021.01,2060.02,3549.57,3368.06,3666.72,349.05,331.07,0.01,0000 0000 0000 0000 000000
2014-04-04 01:08:04,0.03,0.00,0.00,17.12,22.91,25.87,6.25,31.83,1021.01,2060.01,3549.18,3367.94,3666.28,350.30,332.25,0.01,0000 0000 0000 0000 000000
2014-04-04 01:09:04,0.03,0.00,0.00,17.12,22.92,25.89,6.10,31.42,1021.01,2060.00,3548.70,3367.53,3666.07,350.90,332.45,0.02,0000 0000 0000 0000 000000
2014-04-04 01:10:04,0.03,0.00,0.00,17.12,22.92,25.90,6.23,31.50,1021.01,2060.01,3548.26,3367.20,3665.70,350.06,331.77,0.03,0000 0000 0000 0000 000000
2014-04-04 01:11:04,0.03,0.00,0.00,17.12,22.92,25.91,6.36,31.67,1021.01,2060.00,3547.94,3367.07,3665.29,351.53,333.32,0.03,0000 0000 0000 0000 000000
2014-04-04 01:12:05,0.03,0.00,0.00,17.12,22.92,25.90,6.30,31.75,1021.01,2060.00,3547.42,3366.98,3665.08,350.22,332.17,0.04,0000 0000 0000 0000 000000
2014-04-04 01:13:05,0.04,0.00,0.00,17.12,22.92,25.87,6.21,31.75,1021.01,2060.00,3547.13,3366.64,3664.79,348.79,330.81,0.04,0000 0000 0000 0000 000000
2014-04-04 01:14:05,0.04,0.00,0.00,17.12,22.93,25.88,6.18,31.50,1021.01,2060.00,3546.74,3366.25,3664.31,350.06,332.02,0.05,0000 0000 0000 0000 000000
2014-04-04 01:15:06,0.05,0.00,0.00,17.12,22.93,25.90,6.12,31.67,1021.01,2060.00,3546.30,3366.09,3664.10,349.16,331.38,0.05,0000 0000 0000 0000 000000
2014-04-04 01:16:06,0.05,0.00,0.00,17.12,22.94,25.91,6.14,31.79,1021.01,2060.00,3546.10,3366.03,3664.00,348.57,330.60,0.06,0000 0000 0000 0000 000000
2014-04-04 01:17:06,0.05,0.00,0.00,17.13,22.94,25.94,6.32,31.50,1021.01,2060.00,3545.86,3365.97,3663.65,351.34,333.22,0.07,0000 0000 0000 0000 000000
2014-04-04 01:18:06,0.06,0.00,0.00,17.14,22.94,25.92,6.24,31.75,1021.01,2060.00,3545.38,3365.68,3663.26,349.81,331.31,0.07,0000 0000 0000 0000 000000
2014-04-04 01:19:07,0.07,0.00,0.00,17.14,22.94,25.91,6.23,31.58,1021.00,2060.00,3545.13,3365.27,3663.09,350.31,332.44,0.08,0000 0000 0000 0000 000000
2014-04-04 01:20:07,0.07,0.01,0.00,17.16,22.95,25.92,6.28,31.67,1021.00,2060.00,3544.94,3365.09,3662.91,350.48,332.37,0.08,0000 0000 0000 0000 000000
2014-04-04 01:21:07,0.07,0.01,0.00,17.17,22.95,25.93,6.36,31.75,1021.01,2060.00,3544.49,3365.03,3662.44,349.71,331.82,0.09,0000 0000 0000 0000 000000
2014-04-04 01:22:07,0.08,0.01,0.00,17.18,22.97,25.94,6.18,31.50,1021.01,2060.00,3544.18,3364.95,3662.16,349.04,330.99,0.10,0000 0000 0000 0000 000000
2014-04-04 01:23:07,0.08,0.01,0.00,17.18,22.97,25.91,6.30,31.63,1021.01,2060.00,3544.01,3364.53,3662.04,351.52,333.37,0.10,0000 0000 0000 0000 000000
2014-04-04 01:24:07,0.09,0.01,0.00,17.19,22.97,25.93,6.25,31.63,1021.01,2060.00,3543.53,3364.20,3661.75,349.89,331.77,0.11,0000 0000 0000 0000 000000
2014-04-04 01:25:08,0.10,0.01,0.00,17.18,22.97,25.94,6.23,31.79,1021.01,2060.00,3543.20,3364.06,3661.32,349.48,331.21,0.11,0000 0000 0000 0000 000000
2014-04-04 01:26:08,0.10,0.01,0.00,17.17,22.97,25.97,6.23,31.54,1021.01,2060.00,3543.03,3363.99,3661.11,349.73,331.64,0.12,0000 0000 0000 0000 000000
2014-04-04 01:27:08,0.09,0.01,0.00,17.17,22.98,25.95,6.14,31.58,1021.01,2060.00,3542.67,3363.79,3661.02,349.38,331.31,0.13,0000 0000 0000 0000 000000
2014-04-04 01:28:08,0.10,0.01,0.00,17.17,22.99,25.96,6.26,31.58,1021.01,2060.00,3542.26,3363.37,3660.63,349.97,331.80,0.13,0000 0000 0000 0000 000000
2014-04-04 01:29:09,0.13,0.01,0.00,17.17,22.99,25.94,6.19,31.63,1021.01,2060.00,3542.08,3363.14,3660.24,349.74,331.66,0.14,0000 0000 0000 0000 000000
2014-04-04 01:30:09,0.12,0.01,0.00,17.17,22.99,25.97,6.33,31.58,1021.00,2059.99,3541.68,3363.04,3660.08,350.13,331.89,0.14,0000 0000 0000 0000 000000
2014-04-04 01:31:09,0.10,0.01,0.00,17.19,22.99,25.99,6.33,32.00,1020.97,2059.98,3541.26,3362.81,3659.87,350.83,332.33,0.15,0000 0000 0000 0000 000000
2014-04-04 01:32:10,0.11,0.01,0.00,17.19,23.00,25.96,6.11,31.67,1020.97,2059.97,3541.06,3362.36,3659.37,349.52,331.41,0.15,0000 0000 0000 0000 000000
2014-04-04 01:33:10,0.13,0.01,0.00,17.20,23.00,25.97,6.19,31.38,1020.95,2059.97,3540.66,3362.14,3659.13,351.32,333.10,0.16,0000 0000 0000 0000 000000
2014-04-04 01:34:10,0.13,0.02,0.00,17.21,23.00,25.94,6.26,31.79,1020.91,2059.97,3540.25,3362.05,3659.03,349.84,331.68,0.17,0000 0000 0000 0000 000000
2014-04-04 01:35:10,0.10,0.02,0.00,17.22,23.02,25.94,6.22,31.50,1020.84,2059.97,3540.09,3361.97,3658.77,349.50,331.32,0.17,0000 0000 0000 0000 000000
2014-04-04 01:36:10,0.08,0.02,0.00,17.22,23.02,25.97,6.31,31.71,1020.79,2059.96,3539.92,3361.74,3658.31,350.62,332.36,0.18,0000 0000 0000 0000 000000
2014-04-04 01:37:11,0.11,0.02,0.00,17.23,23.02,25.97,6.21,31.42,1020.73,2059.95,3539.44,3361.32,3658.11,349.82,331.62,0.18,0000 0000 0000 0000 000000
2014-04-04 01:38:11,0.15,0.02,0.00,17.24,23.02,26.01,6.12,31.50,1020.63,2059.97,3539.15,3361.11,3658.00,349.33,331.06,0.19,0000 0000 0000 0000 000000
2014-04-04 01:39:11,0.09,0.02,0.00,17.24,23.02,25.95,6.09,31.71,1020.64,2059.99,3539.02,3361.03,3657.74,349.54,330.99,0.20,0000 0000 0000 0000 000000
2014-04-04 01:40:11,0.07,0.02,0.00,17.26,23.03,25.99,6.28,31.42,1020.60,2059.99,3538.59,3360.99,3657.32,351.37,332.96,0.20,0000 0000 0000 0000 000000
2014-04-04 01:41:11,0.13,0.02,0.00,17.27,23.04,25.98,6.25,31.67,1020.64,2059.95,3538.22,3360.69,3657.11,350.17,331.82,0.21,0000 0000 0000 0000 000000
2014-04-04 01:42:12,0.11,0.02,0.00,17.27,23.04,25.99,6.18,31.58,1020.64,2059.96,3538.06,3360.25,3657.02,350.26,331.92,0.21,0000 0000 0000 0000 000000
2014-04-04 01:43:12,0.12,0.02,0.00,17.27,23.04,25.99,6.17,31.50,1020.58,2059.96,3537.70,3360.09,3656.67,349.15,330.85,0.22,0000 0000 0000 0000 000000
2014-04-04 01:44:12,0.12,0.02,0.00,17.27,23.04,26.00,6.22,31.63,1020.54,2059.92,3537.28,3360.02,3656.26,350.46,332.08,0.22,0000 0000 0000 0000 000000
2014-04-04 01:45:12,0.06,0.02,0.00,17.28,23.05,25.97,6.22,31.67,1020.55,2059.92,3537.10,3359.92,3656.10,349.99,331.61,0.23,0000 0000 0000 0000 000000
2014-04-04 01:46:12,0.06,0.02,0.00,17.29,23.05,26.00,6.25,31.58,1020.56,2059.90,3536.92,3359.54,3655.97,349.87,331.49,0.24,0000 0000 0000 0000 000000
2014-04-04 01:47:12,0.10,0.02,0.00,17.31,23.05,25.98,6.16,31.79,1020.55,2059.87,3536.43,3359.22,3655.59,349.04,330.46,0.24,0000 0000 0000 0000 000000
2014-04-04 01:48:13,0.16,0.02,0.00,17.31,23.07,25.96,6.21,31.54,1020.55,2059.86,3536.17,3359.08,3655.24,350.39,331.67,0.25,0000 0000 0000 0000 000000
2014-04-04 01:49:13,0.09,0.02,0.00,17.31,23.07,25.99,6.16,31.71,1020.52,2059.79,3536.05,3359.03,3655.09,349.17,330.94,0.25,0000 0000 0000 0000 000000
2014-04-04 01:50:13,-0.04,0.02,0.00,17.32,23.07,25.99,6.18,31.58,1020.55,2059.70,3535.75,3358.86,3654.98,350.32,331.88,0.26,0000 0000 0000 0000 000000
2014-04-04 01:51:13,0.02,0.02,0.00,17.32,23.07,25.95,6.05,31.54,1020.53,2059.63,3535.31,3358.44,3654.58,349.69,331.51,0.27,0000 0000 0000 0000 000000
2014-04-04 01:52:14,0.15,0.03,0.00,17.32,23.07,25.98,6.20,31.83,1020.53,2059.64,3535.11,3358.16,3654.24,349.18,330.79,0.27,0000 0000 0000 0000 000000
2014-04-04 01:53:14,0.13,0.03,0.00,17.32,23.07,26.01,6.27,31.63,1020.52,2059.71,3535.02,3358.06,3654.08,351.47,333.28,0.28,0000 0000 0000 0000 000000
2014-04-04 01:54:14,0.10,0.03,0.00,17.33,23.08,26.00,6.14,31.67,1020.53,2059.78,3534.67,3358.00,3653.99,350.79,332.00,0.28,0000 0000 0000 0000 000000
2014-04-04 01:55:14,0.12,0.03,0.00,17.34,23.09,26.01,6.09,31.75,1020.53,2059.72,3534.25,3357.83,3653.72,348.31,330.07,0.29,0000 0000 0000 0000 000000
2014-04-04 01:56:15,0.05,0.03,0.00,17.33,23.09,26.02,5.98,31.54,1020.53,2059.53,3534.05,3357.39,3653.28,349.40,330.99,0.29,0000 0000 0000 0000 000000
2014-04-04 01:57:15,0.00,0.03,0.00,17.33,23.09,26.04,6.20,31.63,1020.52,2059.47,3533.57,3357.14,3653.10,350.60,332.53,0.30,0000 0000 0000 0000 000000
2014-04-04 01:58:15,0.12,0.03,0.00,17.32,23.10,26.02,6.33,31.50,1020.55,2059.33,3533.22,3357.05,3652.93,351.10,332.61,0.31,0000 0000 0000 0000 000000
2014-04-04 01:59:15,-0.03,0.03,0.00,17.33,23.10,26.00,6.31,31.67,1020.52,2059.33,3533.08,3357.01,3652.67,350.56,332.06,0.31,0000 0000 0000 0000 000000
2014-04-04 02:00:15,0.08,0.03,0.00,17.34,23.11,25.94,6.28,31.71,1020.52,2059.29,3532.80,3356.70,3652.28,351.01,332.50,0.32,0000 0000 0000 0000 000000
2014-04-04 02:01:16,0.10,0.03,0.00,17.36,23.12,25.99,6.18,31.71,1020.52,2059.18,3532.33,3356.29,3652.10,349.13,330.70,0.32,0000 0000 0000 0000 000000
2014-04-04 02:02:16,0.07,0.03,0.00,17.37,23.12,25.97,6.23,31.63,1020.52,2059.13,3532.12,3356.10,3651.97,349.65,331.24,0.33,0000 0000 0000 0000 000000
2014-04-04 02:03:16,0.03,0.03,0.00,17.37,23.12,26.02,6.15,31.50,1020.52,2059.09,3531.97,3356.02,3651.50,350.57,332.16,0.34,0000 0000 0000 0000 000000
2014-04-04 02:04:17,0.07,0.03,0.00,17.38,23.12,26.02,6.06,31.71,1020.52,2059.06,3531.54,3355.92,3651.19,348.99,330.55,0.34,0000 0000 0000 0000 000000
2014-04-04 02:05:17,0.09,0.03,0.00,17.39,23.12,26.05,6.10,31.54,1020.52,2059.05,3531.21,3355.50,3651.07,348.70,330.54,0.35,0000 0000 0000 0000 000000
2014-04-04 02:06:17,0.13,0.03,0.00,17.40,23.13,26.04,6.33,31.63,1020.52,2059.04,3531.06,3355.19,3650.91,351.22,332.64,0.35,0000 0000 0000 0000 000000
2014-04-04 02:07:17,0.09,0.03,0.00,17.40,23.14,26.00,6.28,31.88,1020.52,2059.03,3530.66,3355.05,3650.45,350.30,331.76,0.36,0000 0000 0000 0000 000000
2014-04-04 02:08:17,0.11,0.03,0.00,17.41,23.14,26.03,6.07,31.58,1020.52,2059.03,3530.25,3354.98,3650.17,348.84,330.37,0.36,0000 0000 0000 0000 000000
2014-04-04 02:09:17,0.10,0.03,0.00,17.42,23.14,26.02,6.32,31.92,1020.52,2059.03,3530.07,3354.68,3650.05,350.38,331.82,0.37,0000 0000 0000 0000 000000
2014-04-04 02:10:18,0.10,0.03,0.00,17.42,23.14,26.02,6.13,31.63,1020.52,2059.03,3529.93,3354.28,3649.91,349.86,331.48,0.38,0000 0000 0000 0000 000000
2014-04-04 02:11:18,0.12,0.04,0.00,17.44,23.15,26.01,6.23,31.58,1020.53,2059.05,3529.51,3354.10,3649.44,350.21,331.91,0.38,0000 0000 0000 0000 000000
2014-04-04 02:12:18,0.15,0.04,0.00,17.42,23.15,26.04,6.23,31.58,1020.52,2059.03,3529.19,3354.02,3649.17,349.16,330.67,0.39,0000 0000 0000 0000 000000
2014-04-04 02:13:18,0.06,0.04,0.00,17.42,23.17,26.06,6.27,31.58,1020.53,2059.03,3529.06,3353.96,3649.05,350.01,331.47,0.39,0000 0000 0000 0000 000000
2014-04-04 02:14:18,0.04,0.04,0.00,17.44,23.17,26.03,6.23,31.58,1020.52,2059.03,3528.80,3353.68,3648.94,351.04,332.42,0.40,0000 0000 0000 0000 000000
2014-04-04 02:15:19,0.12,0.04,0.00,17.44,23.17,25.97,6.13,31.38,1020.52,2059.01,3528.34,3353.28,3648.47,350.17,331.63,0.41,0000 0000 0000 0000 000000
2014-04-04 02:16:19,0.17,0.04,0.00,17.44,23.17,26.06,6.29,31.54,1020.52,2059.00,3528.12,3353.10,3648.19,350.02,331.57,0.41,0000 0000 0000 0000 000000
2014-04-04 02:17:19,0.08,0.04,0.00,17.46,23.18,26.01,6.14,31.63,1020.52,2059.00,3527.94,3353.03,3648.07,348.53,330.46,0.42,0000 0000 0000 0000 000000
2014-04-04 02:18:19,0.06,0.04,0.00,17.47,23.19,26.03,6.28,31.67,1020.52,2059.01,3527.46,3352.84,3647.81,351.20,332.61,0.42,0000 0000 0000 0000 000000
2014-04-04 02:19:20,0.14,0.04,0.00,17.48,23.19,26.05,6.23,31.63,1020.52,2059.01,3527.16,3352.43,3647.34,349.35,330.78,0.43,0000 0000 0000 0000 000000
2014-04-04 02:20:20,0.18,0.04,0.00,17.49,23.19,26.05,6.22,31.54,1020.52,2059.00,3527.05,3352.16,3647.12,349.92,331.30,0.44,0000 0000 0000 0000 000000
2014-04-04 02:21:20,0.08,0.04,0.00,17.50,23.19,26.06,6.27,31.58,1020.52,2059.00,3526.64,3352.05,3647.04,350.14,331.50,0.44,0000 0000 0000 0000 000000
2014-04-04 02:22:20,0.07,0.04,0.00,17.52,23.20,26.03,6.19,31.46,1020.52,2059.00,3526.25,3352.02,3647.00,350.04,331.38,0.45,0000 0000 0000 0000 000000
2014-04-04 02:23:20,0.06,0.04,0.00,17.53,23.20,26.08,6.10,31.54,1020.52,2059.00,3526.08,3351.93,3646.90,348.57,329.98,0.45,0000 0000 0000 0000 000000
2014-04-04 02:24:21,0.05,0.04,0.00,17.54,23.22,26.06,6.07,31.67,1020.52,2059.00,3525.88,3351.48,3646.43,349.71,331.05,0.46,0000 0000 0000 0000 000000
2014-04-04 02:25:21,0.17,0.04,0.00,17.54,23.22,26.06,6.07,31.58,1020.52,2059.00,3525.42,3351.20,3646.15,349.66,331.00,0.46,0000 0000 0000 0000 000000
2014-04-04 02:26:21,0.14,0.04,0.00,17.54,23.22,26.06,6.19,31.29,1020.52,2059.00,3525.15,3351.07,3646.04,350.71,332.05,0.47,0000 0000 0000 0000 000000
2014-04-04 02:27:22,0.07,0.05,0.00,17.54,23.22,26.05,6.10,31.50,1020.52,2059.00,3525.02,3350.99,3645.82,349.22,330.57,0.48,0000 0000 0000 0000 000000
2014-04-04 02:28:22,0.07,0.05,0.00,17.54,23.22,26.01,6.16,31.67,1020.51,2059.00,3524.54,3350.68,3645.33,350.12,331.42,0.48,0000 0000 0000 0000 000000
2014-04-04 02:29:22,0.18,0.05,0.00,17.54,23.24,26.03,6.19,31.63,1020.48,2059.00,3524.20,3350.31,3645.12,350.45,331.73,0.49,0000 0000 0000 0000 000000
2014-04-04 02:30:22,0.14,0.05,0.00,17.56,23.24,26.04,6.15,31.75,1020.50,2059.00,3524.06,3350.11,3645.03,349.65,330.48,0.49,0000 0000 0000 0000 000000
2014-04-04 02:31:23,0.07,0.05,0.00,17.57,23.24,26.03,6.11,31.67,1020.47,2059.00,3523.84,3350.04,3644.87,350.55,332.24,0.50,0000 0000 0000 0000 000000
2014-04-04 02:32:23,0.07,0.05,0.00,17.57,23.25,26.06,6.03,31.71,1020.43,2059.00,3523.36,3349.97,3644.39,350.07,331.32,0.51,0000 0000 0000 0000 000000
2014-04-04 02:33:23,0.14,0.05,0.00,17.57,23.25,26.04,6.18,31.46,1020.35,2059.00,3523.13,3349.65,3644.14,350.19,331.42,0.51,0000 0000 0000 0000 000000
2014-04-04 02:34:24,0.12,0.05,0.00,17.57,23.26,26.01,6.19,31.63,1020.25,2059.00,3522.99,3349.25,3644.04,349.49,330.72,0.52,0000 0000 0000 0000 000000
2014-04-04 02:35:24,0.11,0.05,0.00,17.58,23.27,25.98,6.14,31.50,1020.28,2059.00,3522.59,3349.10,3643.89,349.98,331.18,0.52,0000 0000 0000 0000 000000
2014-04-04 02:36:24,0.09,0.05,0.00,17.58,23.27,26.01,6.22,31.75,1020.19,2058.98,3522.22,3349.03,3643.41,350.44,331.47,0.53,0000 0000 0000 0000 000000
2014-04-04 02:37:24,0.10,0.05,0.00,17.59,23.27,26.04,6.23,31.50,1020.13,2058.98,3522.08,3348.90,3643.15,350.12,331.26,0.53,0000 0000 0000 0000 000000